Погода в Рубцовске

Хотите узнать прогноз погоды в Рубцовске? Тогда Вам сюда: Погода в Рубцовске

Поиск расширенной информации на нашем сайте:

Полезная информация:

Новости сайта



02.01.2020
Опубликован Долгосрочный прогноз погоды по городам России и ближнего зарубежья на январь 2020 года.
Карты: Прогноз на январь и февраль 2020 года, Сравнение прогнозируемой аномалии приземной температуры воздуха на январь 2020 года по разным моделям.




Погода в Рубцовске - сегодня

Время (UTC), дата Ветер
(°,м/с) 
Видим.   Явления Облачность Т
(°С)
Тd
(°С)
f(%) Тe
(°С)
Pmin
(гПа)
dP
(гПа)
Po
(мм)
O2
(г/м3)
Тmin Tmax R s Состояние
почвы
06 05.04.20 060 (СВ) 20000 м    ясно 
+11.3 -2.8 37 +11  1022.6  -1.6  747  289           
09 05.04.20 070 (В) 20000 м    ясно 
+16 -0.9 31 +16  1019.6  -2.4  745  284           
12 05.04.20 070 (В) 20000 м    3/0 верхняя 
[Ci fib]
+16.4 -2.5 27 +17  1017.8  -1.8  744  283    +16.9       
15 05.04.20 050 (СВ) 20000 м    10/0 верхняя 
[Cs]
+7.5 +0.4 61 +7  1018.3  -0.4  744  292           
18 05.04.20 020 (С) 20000 м    6/0 верхняя 
[Ci sp]
+2.9 -0.4 79 +2  1016.3  -2.2  742  296           
21 05.04.20 230 (ЮЗ) 20000 м    10/0 верхняя 
[Ci sp]
+0.1 -2.6 82 +1  1015.6  -1  741  299           
00 06.04.20 190 (Ю) 10 км    4/0 средняя 
[Ac trans]
+2.3 -0.7 81 +1  1016.4  742  297  +0      мокрый или
старый снег
10-40% 
03 06.04.20 220 (ЮЗ) 20000 м    3/0 верхняя 
[Ci fib]
+6.6 +3.5 81 +5  1018.2  743  292           
06 06.04.20 250 (З) 20000 м    3/3 1000 м 
[Cu hum]
+13.9 +3.2 48 +14  1017.8  0.4  744  285           
09 06.04.20 280 (З) 20000 м    4/4 1000 м 
[Sc diur, vesp]
+14.9 +2.9 44 +14  1017.7  744  284           
12 06.04.20 280 (З) 20000 м    8/8 1000 м 
[Sc diur, vesp]
+13.6 +1.3 43 +13  1019  1.2  745  286    +16.2       
15 06.04.20 250 (З) 20000 м    ясно 
+7.8 +2.8 71 +8  1020  0.4  745  291           
18 06.04.20 190 (Ю) 20000 м    3/0 верхняя 
[Ci sp]
+2.5 +0.6 87 +1  1020.6  745  297           
21 06.04.20 220 (ЮЗ) 20000 м    ясно 
+1.2 +0.1 92 +2  1020.1  -0.6  745  299           
00 07.04.20 220 (ЮЗ) 10 км    ясно 
-0.9 -1.5 96 -2  1019.4  -0.9  744  301  -0.9         
03 07.04.20 040 (СВ) 20000 м    10/0 верхняя 
[Ci sp]
+7.2 +4.2 81 +6  1016.8  -1.6  743  291  -2         
06 07.04.20 120 (ЮВ) 7-10{10}  20000 м    10/0 верхняя 
[Ci sp]
+17.8 +1.2 33 +18  1013.7  -2.1  741  280           
09 07.04.20 170 (Ю) 7{11}  20000 м    6/0 верхняя 
[Ci fib]
+18.6 -0.2 28 +19  1011.3  -2.4  739  279           
12 07.04.20 150 (ЮВ) 8-11{12}  20000 м    10/0 верхняя 
[Ci fib]
+18.6 +0.9 30 +18  1009.4  -1.8  738  278    +19.9       
15 07.04.20 150 (ЮВ) 7-11{12}  20000 м    10/0 верхняя 
[Ci sp]
+13.6 +0.6 41 +12  1009  -0.8  737  283           
18 07.04.20 160 (Ю) 7-11{12}  20000 м    10/0 верхняя 
[Ci sp]
+12 +0.8 46 +11  1008.6  -0.5  737  284           
21 07.04.20 240 (ЮЗ) 4{13}  20000 м    10/10 600 м 
[Sc]
+5.5 -2.6 56 +4  1014.5  5.1  741  293           
00 08.04.20 230 (ЮЗ) 20000 м    10/10 600 м 
[Sc]
+5.5 -3.3 53 +3  1018.5  3.8  744  294  +5         
03 08.04.20 220 (ЮЗ) 20000 м    10/3 600 м средняя 
[Sc|Ac As]
+5.1 -4.6 49 +3  1021.9  3.4  746  296  +4.7         
06 08.04.20 270 (З) 5{10}  20000 м    10/0 средняя 
[Ac As]
+6.5 -4.8 44 +5  1023.5  1.6  747  295           
Время (UTC), дата Ветер
(°,м/с) 
Видим.   Явления Облачность Т
(°С)
Тd
(°С)
f(%) Тe
(°С)
Pmin
(гПа)
dP
(гПа)
Po
(мм)
O2
(г/м3)
Тmin Tmax R s Состояние
почвы

Для получения пояснительной информации подведите курсор к названию столбца.

ПОГОДА в Рубцовске - архив

Всё, что Вы хотите узнать о погоде в Рубцовске - удобно и подробно!

Выберите нужную дату (начиная с 1 января 2019* года) и нажмите кнопку "Найти".
Будут отображены архивные сводки погоды по пункту Рубцовск, начиная с указанной даты.


Отображать данные в формате CSV (для использования в таблицах Excel)


Внимание! Наш архив погоды предназначен исключительно для личного некоммерческого использования в познавательных целях. Если Вам необходимы официальные справки о состоянии погоды (для производственных, юридических, коммерческих и т.п. целей), обращайтесь в органы Росгидромета.

*Примечание: данная дата относится к архиву по метеостанциям СССР (Россия, СНГ, Балтия).
Архив по метеостанциям Зарубежной Европы и Азии (кроме Китая) хранится 10 дней, по другим регионам земного шара (Китай, Африка, Америка, Австралия, Океания) - 1 день.

Рубцовск - район местоположения метеостанции


Название, широта, долгота, высота метеостанции:
Рубцовск 51.5°ш. 81.2°д. 219 м над ур. моря [Российская Федерация]

Дополнительная информация

В oтличие oт бoльшинства пoгoдных сайтoв мы публикуем пoдрoбную метеoинфoрмацию в детальнoм прoфессиoнальнoм фoрмате.

Характеристики температуры и влажнoсти вoздуха измеряются на высoте 2 м в тени вдали oт зданий и деревьев.
Скoрoсть ветра измеряется на высoте 10 м (на урoвне рoста челoвека скoрoсть ветра ниже в 1.5-2 раза). Если метеoстанция нахoдится в гoрoде или в лесу, тo скoрoсть ветра занижена на 2-4 м/с пo сравнению с oткрытым местoм. Скoрoсть ветра над акватoриями крупных рек и oзёр, а также на вершинах хoлмoв на 2-5 м/с выше, чем в oбычных услoвиях.
Атмoсфернoе давление в разных тoчках местнoсти мoжет значительнo oтличаться oт давления на метеoстанции, в зависимoсти oт услoвий рельефа (при пoдъёме на 10 м давление пoнижается примернo на 1 мм рт.ст.).